STARLINK-31975, 59886

Orbit data source: Space-Track

STARLINK-31975, 59886 is a payload satellite owned by SpaceX/Seattle (US) in LEO that was launched on Tue, 28 May 2024 UTC via an FALCON 9 launch vehicle from the Air Force Eastern Test Range (AFETR). Payload-class satellites include a variety of spacecraft equipped with specific instruments for various scientific and technological missions. These include communications satellites like Starlink; space stations such as the ISS; scientific satellites like the Hubble; Earth observation satellites from companies like Planet Labs, Umbra, and HawkEye 360; GPS; miniature CubeSats for education and research; and military/defense satellites.

Loading next visibility...
Identifier
59886, 2024-100B
Orbit
LEO
Last TLE update
7 hours ago
Origin
Manufacturer
SpaceX/Seattle
Mission
Operational spacecraft
Bus & Motor
STARLINK V2M, Unknown motor
Mass
730 kg wet, ~700 kg dry
Launch date (UTC)
2024-05-28 (11 months ago)
Launch vehicle
FALCON 9
Launch site
Air Force Eastern Test Range (AFETR)
Object type
Payload
Rocket body
Debris
Shape & HBR
Unknown
Radar Cross Section
Large (>1 m²)

Expand to show TLE details & history

TLE from 7 hours ago
0 STARLINK-31975
1 59886U 24100B   25129.10088441  .00000322  00000-0  21242-4 0  9990
2 59886  43.0043  45.5824 0002977 245.2404 114.8138 15.27571326 54561
Epoch: 2025-05-09T02:25Z
Definitive object data (Epoch: 2025-05-09T02:25:16.413Z)
Latitude
-0°
Longitude
142.10214°
Altitude
483.709 km
Speed
7.625 km/s
True Right ascension
03h 02m 19s
True Declination
0° 00' 00"
Sunlit
Object was in daylight at TLE epoch
Visualization TLE readout
Latitude
-4.59771°
Longitude
-34.64791°
Altitude
482.556 km
Speed
7.626 km/s
Apparent Right ascension
12h 15m 02s
Apparent Declination
-48° 30' 15"
Sunlit
Object is in full shadow
Visualization observer readout
Local Sidereal Time
17:40:02
Azimuth
225.695° WSW
Elevation
-23.784°
Doppler factor
1
Orbital elements
Apogee altitude
487.063 km
Perigee altitude
482.976 km
Semi-major axis
6,863.157 km
Eccentricity
0.0002977
Inclination
43.0043°
RAAN
45.5824°
Arg. of periapsis
245.2404°
True anomaly
114.84476°
Mean anomaly
114.8138°
Eccentric anomaly
114.82928°
Mean motion
3.81731 °/min
BSTAR
0.000021242
Orbital period
94.31 mins
Loading maneuver chart data...
Loading SW <> Apogee altitude chart data...
Loading historical data...
Loading historical data...
Loading historical data...
Loading historical data...
Loading historical data...
Loading historical data...
Loading historical data...

STARLINK-31975 Visibility forecast

Observer location: undefined°, undefined°

Span
Click to sort rows by Start time (UTC) header in descending order
Start Az.
Max El. time (UTC)
Max El. Az.
Max El.
End time (UTC)
End Az.
6 mins2025-05-09 21:26:42.290Z212.343° SW2025-05-09 21:29:42.290Z157.35° SSE27.832°2025-05-09 21:32:42.290Z89.611° E
5 mins2025-05-09 23:06:42.290Z264.46° W2025-05-09 23:08:42.290Z340.967° N43.711°2025-05-09 23:11:42.290Z69.451° E
5 mins2025-05-10 00:45:42.290Z293.563° NW2025-05-10 00:47:42.290Z348.506° N37.981°2025-05-10 00:50:42.290Z77.119° E
6 mins2025-05-10 02:24:42.290Z284.945° WNW2025-05-10 02:26:42.290Z255.249° W43.307°2025-05-10 02:30:42.290Z114.933° SE
|